#timestamp,LO_Frequency,Hit 
1502182815.8,286047006.6,N
1502182835.7,286047005.2,N
1502182855.5,286047001.3,N
1502182875.3,286046998.8,N
1502182895.1,286046998.0,N
1502182915.9,286046990.3,N
1502182935.7,286046985.3,N
1502182955.5,286046983.0,N
1502182975.4,286046982.8,N
1502182995.2,286046981.9,N
1502183015.0,286046983.0,N
1502183015.9,286046983.0,N
1502183035.8,286046983.7,N
1502183055.6,286046987.6,N
1502183075.4,286046984.7,N
1502183095.3,286046987.6,N
1502183115.1,286046987.7,N
1502183116.0,286046987.7,N
1502183135.8,286046983.1,N
1502183155.7,286046981.6,N
1502183175.5,286046981.6,N
1502183195.3,286046978.4,N
1502183215.2,286046981.6,N
1502183235.9,286046981.7,N
1502183255.7,286046978.3,N
1502183275.5,286046977.1,N
1502183295.4,286046974.7,N
1502183315.2,286046977.9,N
1502183335.0,286046976.1,N
1502183335.9,286046976.1,N
1502183355.8,286046974.0,P
1502183375.6,286046983.7,N
1502183395.4,286046983.8,P
1502183415.3,286046978.9,P
1502183435.1,286046995.6,P
1502183455.9,286046992.9,N
1502183475.7,286046989.9,N
1502183495.5,286046986.0,N
1502183515.3,286046984.5,N
1502183535.2,286046984.5,N
1502183555.0,286046984.3,N
1502183555.9,286046984.3,P
1502183575.8,286046999.4,N
1502183595.6,286046996.7,N
1502183615.4,286046999.0,N
1502183635.2,286046995.5,N
1502183655.1,286046996.3,N
1502183656.0,286046996.3,N
1502183675.8,286046994.6,N
1502183695.6,286046996.4,N
1502183715.5,286046993.4,N
1502183735.3,286046992.1,N
1502183755.1,286046995.6,N
1502183775.9,286046995.3,N
1502183795.7,286046999.1,N
1502183815.5,286046998.4,N
1502183835.4,286047004.4,N
1502183855.2,286047005.8,N
1502183875.0,286047007.4,N
1502183875.9,286047007.4,N
1502183895.8,286047010.0,N
1502183915.6,286047018.4,N
1502183935.4,286047022.0,N
1502183955.3,286047021.0,N
1502183975.1,286047019.3,N
1502183976.0,286047019.3,N
1502183995.8,286047020.6,N
1502184015.6,286047028.3,N
1502184035.5,286047025.6,N
1502184055.3,286047024.1,N
1502184075.1,286047022.0,N
1502184095.9,286047026.8,N
1502184115.7,286047027.8,N
1502184135.5,286047029.6,N
1502184155.4,286047022.6,N
1502184175.2,286047023.0,N
1502184195.0,286047022.8,N
1502184195.9,286047022.8,N
1502184215.8,286047024.7,N
1502184235.6,286047022.5,N
1502184255.4,286047024.5,N
1502184275.3,286047028.0,N
1502184295.1,286047035.1,P
1502184315.8,286047021.6,N
1502184335.7,286047017.8,N
1502184355.5,286047014.9,N
1502184375.3,286047011.6,N
1502184395.2,286047008.6,N
1502184415.9,286047009.8,N
1502184435.7,286047011.5,N
1502184455.6,286047005.3,N
1502184475.4,286047005.3,N
1502184495.2,286047005.1,N
1502184515.1,286047005.6,N
1502184516.0,286047005.6,N
1502184535.8,286047009.1,N
1502184555.6,286047008.1,N
1502184575.4,286047006.4,N
1502184595.3,286047001.8,N
1502184615.1,286047001.8,N
1502184635.8,286047000.6,N
1502184655.7,286047000.8,N
1502184675.5,286047004.3,N
1502184695.3,286047004.3,N
1502184715.2,286047003.4,N
1502184735.9,286047005.4,N
1502184755.7,286047009.1,N
1502184775.6,286047010.7,N
1502184795.4,286047009.6,N
1502184815.2,286047007.0,N
1502184835.1,286047003.4,N
1502184836.0,286047003.4,N
1502184855.8,286047007.4,N
1502184875.6,286047007.1,N
1502184895.5,286047007.1,N
1502184915.3,286047004.2,N
1502184935.1,286047006.8,N
1502184955.9,286047011.9,P
1502184975.7,286047008.7,N
1502184995.5,286047010.6,P
1502185015.4,286047013.6,P
1502185035.2,286047005.9,N
1502185055.0,286047000.6,N
1502185055.9,286047000.6,N
1502185075.8,286047002.0,N
1502185095.6,286047003.7,N
1502185115.4,286047003.6,N
1502185135.2,286047001.0,N
1502185155.1,286047000.7,N
1502185156.0,286047000.7,N
1502185175.8,286046995.4,N
1502185195.6,286046994.6,N
1502185215.5,286046999.6,N
1502185235.3,286046996.9,N
1502185255.1,286047001.2,N
1502185275.9,286047002.7,N
1502185295.7,286047001.5,N
1502185315.5,286047004.3,N
1502185335.4,286047000.8,N
1502185355.2,286046998.3,N
1502185375.0,286046996.8,N
1502185375.9,286046996.8,N
1502185395.8,286046993.3,N
1502185415.6,286046991.2,N
1502185435.4,286046987.0,N
1502185455.3,286046988.6,N
1502185475.1,286046989.5,N
1502185476.0,286046989.5,N
1502185495.8,286046987.2,N
1502185515.7,286046986.7,N
1502185535.5,286046983.1,N
1502185555.3,286046981.2,P
1502185575.2,286046982.5,N
1502185595.9,286046983.3,N
1502185615.7,286046980.5,P
1502185635.6,286046996.3,N
1502185655.4,286046994.6,N
1502185675.2,286046993.0,N
1502185695.1,286046992.3,N
1502185696.0,286046992.3,N
1502185715.8,286046994.0,N
1502185735.6,286046992.5,N
1502185755.5,286046991.1,N
1502185775.3,286046989.3,N
1502185795.1,286046987.6,N
1502185815.9,286046983.8,P
1502185835.7,286046994.3,N
1502185855.5,286046991.8,N
1502185875.3,286046996.4,N
1502185895.2,286046995.5,N
1502185915.0,286046996.3,N
1502185915.9,286046996.3,N
1502185935.7,286046995.4,N
1502185955.6,286046998.1,N
1502185975.4,286047002.8,N
1502185995.2,286046998.5,N
1502186015.1,286047000.2,N
1502186016.0,286047000.2,N
1502186035.8,286046996.6,N
1502186055.6,286047000.6,N
1502186075.5,286047001.1,N
1502186095.3,286046999.1,N
1502186115.1,286046995.7,N
1502186135.9,286046994.6,N
1502186155.7,286046992.0,N
1502186175.5,286046989.2,N
1502186195.4,286046991.6,N
1502186215.2,286046991.4,N
1502186235.0,286046995.7,N
1502186235.9,286046995.7,N
1502186255.8,286046995.1,N
1502186275.6,286046997.9,N
1502186295.4,286046990.7,N
1502186315.2,286046990.9,N
1502186335.1,286046991.9,N
1502186336.0,286046991.9,N
1502186355.8,286046995.2,N
1502186375.6,286046999.2,N
1502186395.5,286046999.1,N
